MAU219 FMEE-FIMP

Flight info

Callsign MAU219
Flight time 0h 28m
Altitude 15000
Route EPTEK2J EPTEK EPTEK2E
Aircraft A359/H-SDE2E3GHIJ3J4J5LM1ORWXY/LB1D1

Departure

Time 2026-04-17 08:50
Airport Roland Garros Airport (FMEE)

Arrival

Time 2026-04-17 09:18
Airport Sir Seewoosagur Ramgoolam International Airport (FIMP)
Time Latitude Longitude Altitude Speed Heading
2026-04-17 08:21 -20.89073 55.51235 81 ft 0 kts 206°
2026-04-17 08:43 -20.89056 55.51244 86 ft 4 kts 206°
2026-04-17 08:43 -20.89033 55.51256 86 ft 4 kts 213°
2026-04-17 08:43 -20.89016 55.51275 86 ft 4 kts 258°
2026-04-17 08:44 -20.89018 55.51301 83 ft 4 kts 293°
2026-04-17 08:44 -20.89031 55.51327 86 ft 3 kts 297°
2026-04-17 08:44 -20.89033 55.51332 81 ft 1 kts 296°
2026-04-17 08:46 -20.89033 55.51331 82 ft 0 kts 296°
2026-04-17 08:47 -20.89022 55.51308 86 ft 7 kts 296°
2026-04-17 08:47 -20.88988 55.51235 83 ft 14 kts 297°
2026-04-17 08:47 -20.88904 55.51177 85 ft 15 kts 340°
2026-04-17 08:47 -20.88776 55.51119 58 ft 24 kts 326°
2026-04-17 08:48 -20.88701 55.50963 58 ft 25 kts 279°
2026-04-17 08:48 -20.88664 55.50773 53 ft 27 kts 283°
2026-04-17 08:48 -20.88622 55.50589 54 ft 22 kts 289°
2026-04-17 08:48 -20.88584 55.50500 59 ft 10 kts 263°
2026-04-17 08:49 -20.88615 55.50491 59 ft 3 kts 134°
2026-04-17 08:49 -20.88616 55.50503 57 ft 1 kts 96°
2026-04-17 08:49 -20.88615 55.50513 59 ft 3 kts 84°
2026-04-17 08:49 -20.88617 55.50544 52 ft 6 kts 98°
2026-04-17 08:50 -20.88643 55.50675 61 ft 44 kts 102°
2026-04-17 08:50 -20.88758 55.51271 59 ft 117 kts 102°
2026-04-17 08:50 -20.88997 55.52317 109 ft 171 kts 112°
2026-04-17 08:50 -20.89278 55.53484 1107 ft 150 kts 96°
2026-04-17 08:51 -20.89239 55.54568 1943 ft 149 kts 63°
2026-04-17 08:51 -20.88486 55.55326 2379 ft 155 kts 33°
2026-04-17 08:51 -20.87568 55.55983 2757 ft 161 kts 38°
2026-04-17 08:51 -20.86694 55.56759 3164 ft 168 kts 44°
2026-04-17 08:52 -20.85819 55.57694 3407 ft 188 kts 48°
2026-04-17 08:52 -20.84902 55.58800 3655 ft 209 kts 50°
2026-04-17 08:52 -20.83928 55.60044 3938 ft 228 kts 51°
2026-04-17 08:52 -20.82878 55.61420 4214 ft 249 kts 51°
2026-04-17 08:53 -20.81769 55.62891 4678 ft 258 kts 51°
2026-04-17 08:53 -20.80635 55.64404 5261 ft 263 kts 51°
2026-04-17 08:53 -20.79483 55.65949 5871 ft 268 kts 51°
2026-04-17 08:53 -20.78314 55.67513 6472 ft 271 kts 50°
2026-04-17 08:54 -20.77133 55.69097 7102 ft 273 kts 51°
2026-04-17 08:54 -20.75941 55.70692 7713 ft 276 kts 50°
2026-04-17 08:54 -20.74734 55.72309 8261 ft 280 kts 50°
2026-04-17 08:54 -20.73507 55.73949 8832 ft 284 kts 50°
2026-04-17 08:55 -20.72271 55.75604 9404 ft 287 kts 50°
2026-04-17 08:55 -20.71021 55.77279 9967 ft 289 kts 50°
2026-04-17 08:55 -20.69752 55.78971 10431 ft 297 kts 50°
2026-04-17 08:55 -20.68450 55.80709 10665 ft 311 kts 50°
2026-04-17 08:56 -20.67072 55.82551 10901 ft 324 kts 50°
2026-04-17 08:56 -20.65635 55.84473 11143 ft 337 kts 50°
2026-04-17 08:56 -20.64148 55.86462 11389 ft 347 kts 50°
2026-04-17 08:56 -20.62631 55.88490 11789 ft 352 kts 50°
2026-04-17 08:57 -20.61067 55.90518 12237 ft 354 kts 46°
2026-04-17 08:57 -20.59371 55.92435 12695 ft 357 kts 44°
2026-04-17 08:57 -20.57637 55.94351 13121 ft 360 kts 44°
2026-04-17 08:57 -20.55898 55.96288 13553 ft 363 kts 44°
2026-04-17 08:58 -20.54148 55.98255 13971 ft 366 kts 44°
2026-04-17 08:58 -20.52393 56.00235 14389 ft 369 kts 44°
2026-04-17 08:58 -20.50628 56.02233 14790 ft 372 kts 45°
2026-04-17 08:58 -20.49454 56.03564 14960 ft 373 kts 45°
2026-04-17 08:59 -20.47636 56.05623 15018 ft 389 kts 44°
2026-04-17 08:59 -20.45760 56.07748 15012 ft 396 kts 45°
2026-04-17 08:59 -20.43928 56.09960 15001 ft 400 kts 51°
2026-04-17 08:59 -20.42370 56.13522 14998 ft 406 kts 76°
2026-04-17 09:00 -20.42151 56.15548 15004 ft 407 kts 86°
2026-04-17 09:00 -20.42136 56.18569 14996 ft 408 kts 89°
2026-04-17 09:00 -20.42179 56.21598 14998 ft 409 kts 89°
2026-04-17 09:00 -20.42215 56.24592 14996 ft 409 kts 89°
2026-04-17 09:01 -20.42244 56.27627 15005 ft 409 kts 89°
2026-04-17 09:01 -20.42266 56.30648 14999 ft 408 kts 89°
2026-04-17 09:01 -20.42285 56.33686 14996 ft 409 kts 89°
2026-04-17 09:01 -20.42302 56.36721 15000 ft 409 kts 88°
2026-04-17 09:02 -20.42316 56.39752 14998 ft 409 kts 88°
2026-04-17 09:02 -20.42331 56.42789 15000 ft 409 kts 89°
2026-04-17 09:02 -20.42346 56.45820 15005 ft 409 kts 88°
2026-04-17 09:02 -20.42360 56.48863 15006 ft 409 kts 88°
2026-04-17 09:03 -20.42371 56.51860 15009 ft 410 kts 88°
2026-04-17 09:03 -20.42384 56.54898 15006 ft 409 kts 88°
2026-04-17 09:03 -20.42394 56.57935 15011 ft 409 kts 88°
2026-04-17 09:03 -20.42404 56.60972 15010 ft 409 kts 88°
2026-04-17 09:04 -20.42415 56.64014 15008 ft 409 kts 88°
2026-04-17 09:04 -20.42424 56.67049 15008 ft 410 kts 88°
2026-04-17 09:04 -20.42433 56.70086 15008 ft 409 kts 88°
2026-04-17 09:04 -20.42442 56.73120 15006 ft 409 kts 88°
2026-04-17 09:05 -20.42449 56.75972 15010 ft 409 kts 88°
2026-04-17 09:05 -20.42456 56.78991 14841 ft 404 kts 88°
2026-04-17 09:05 -20.42463 56.81974 14038 ft 404 kts 88°
2026-04-17 09:05 -20.42469 56.84987 13125 ft 407 kts 88°
2026-04-17 09:06 -20.42475 56.88000 12363 ft 405 kts 88°
2026-04-17 09:06 -20.42484 56.90949 12034 ft 390 kts 88°
2026-04-17 09:06 -20.42490 56.93787 11774 ft 375 kts 88°
2026-04-17 09:06 -20.42494 56.96479 11523 ft 361 kts 88°
2026-04-17 09:07 -20.42497 56.99108 11267 ft 344 kts 88°
2026-04-17 09:07 -20.42502 57.01576 10893 ft 322 kts 88°
2026-04-17 09:07 -20.42504 57.03906 10371 ft 308 kts 88°
2026-04-17 09:07 -20.42507 57.06137 9917 ft 293 kts 88°
2026-04-17 09:08 -20.42506 57.08304 9601 ft 295 kts 88°
2026-04-17 09:08 -20.42504 57.10495 9334 ft 294 kts 88°
2026-04-17 09:08 -20.42504 57.12665 8969 ft 291 kts 88°
2026-04-17 09:08 -20.42505 57.14812 8650 ft 289 kts 88°
2026-04-17 09:09 -20.42503 57.16948 8349 ft 287 kts 88°
2026-04-17 09:09 -20.42503 57.19071 8042 ft 285 kts 88°
2026-04-17 09:09 -20.42504 57.21154 7751 ft 283 kts 88°
2026-04-17 09:09 -20.42503 57.23247 7454 ft 282 kts 88°
2026-04-17 09:10 -20.41721 57.27228 6882 ft 274 kts 60°
2026-04-17 09:10 -20.40751 57.28976 6581 ft 273 kts 57°
2026-04-17 09:10 -20.39755 57.30685 6295 ft 272 kts 57°
2026-04-17 09:11 -20.38761 57.32392 5999 ft 271 kts 56°
2026-04-17 09:11 -20.37767 57.34100 5705 ft 269 kts 57°
2026-04-17 09:11 -20.36807 57.35766 5542 ft 258 kts 57°
2026-04-17 09:11 -20.35893 57.37366 5392 ft 248 kts 58°
2026-04-17 09:12 -20.35181 57.38999 5290 ft 238 kts 67°
2026-04-17 09:12 -20.34614 57.40612 5158 ft 227 kts 68°
2026-04-17 09:12 -20.34091 57.42157 5036 ft 217 kts 69°
2026-04-17 09:12 -20.33587 57.43648 4914 ft 209 kts 69°
2026-04-17 09:13 -20.33111 57.45053 4859 ft 195 kts 68°
2026-04-17 09:13 -20.32881 57.46455 4782 ft 197 kts 91°
2026-04-17 09:13 -20.33208 57.47880 4616 ft 200 kts 110°
2026-04-17 09:13 -20.33834 57.49209 4336 ft 201 kts 115°
2026-04-17 09:14 -20.34470 57.50509 4143 ft 199 kts 114°
2026-04-17 09:14 -20.35089 57.51813 3882 ft 195 kts 113°
2026-04-17 09:14 -20.35691 57.53090 3601 ft 191 kts 115°
2026-04-17 09:14 -20.36291 57.54346 3294 ft 189 kts 117°
2026-04-17 09:15 -20.36888 57.55584 2995 ft 186 kts 117°
2026-04-17 09:15 -20.37466 57.56787 2696 ft 178 kts 116°
2026-04-17 09:15 -20.38016 57.57933 2418 ft 169 kts 115°
2026-04-17 09:15 -20.38538 57.59021 2153 ft 161 kts 115°
2026-04-17 09:16 -20.39034 57.60055 1914 ft 153 kts 115°
2026-04-17 09:16 -20.39507 57.61041 1687 ft 145 kts 115°
2026-04-17 09:16 -20.39956 57.61976 1458 ft 139 kts 114°
2026-04-17 09:16 -20.40392 57.62885 1261 ft 137 kts 114°
2026-04-17 09:17 -20.40826 57.63790 1049 ft 137 kts 115°
2026-04-17 09:17 -20.41261 57.64696 837 ft 137 kts 114°
2026-04-17 09:17 -20.41693 57.65599 628 ft 137 kts 114°
2026-04-17 09:17 -20.42128 57.66502 413 ft 136 kts 115°
2026-04-17 09:18 -20.42558 57.67400 225 ft 135 kts 115°
2026-04-17 09:18 -20.42963 57.68243 158 ft 113 kts 117°
2026-04-17 09:18 -20.43268 57.68877 140 ft 81 kts 117°
2026-04-17 09:18 -20.43476 57.69303 118 ft 45 kts 117°
2026-04-17 09:19 -20.43534 57.69405 120 ft 7 kts 119°
2026-04-17 09:19 -20.43549 57.69415 119 ft 0 kts 175°
2026-04-17 09:19 -20.43556 57.69408 120 ft 2 kts 224°
2026-04-17 09:19 -20.43601 57.69359 122 ft 14 kts 217°
2026-04-17 09:20 -20.43651 57.69272 135 ft 15 kts 272°
2026-04-17 09:20 -20.43612 57.69170 144 ft 16 kts 295°
2026-04-17 09:20 -20.43555 57.69052 156 ft 20 kts 301°
2026-04-17 09:20 -20.43486 57.68919 162 ft 19 kts 295°
2026-04-17 09:21 -20.43429 57.68792 166 ft 20 kts 293°
2026-04-17 09:21 -20.43372 57.68675 169 ft 14 kts 297°
2026-04-17 09:21 -20.43342 57.68613 170 ft 1 kts 297°
2026-04-17 09:21 -20.43341 57.68613 170 ft 0 kts 297°
2026-04-17 09:22 -20.43341 57.68612 170 ft 0 kts 297°
2026-04-17 09:23 -20.43332 57.68593 171 ft 6 kts 297°
2026-04-17 09:24 -20.43302 57.68532 172 ft 12 kts 297°
2026-04-17 09:24 -20.43253 57.68431 175 ft 18 kts 296°
2026-04-17 09:24 -20.43191 57.68298 178 ft 22 kts 297°
2026-04-17 09:24 -20.43127 57.68159 181 ft 17 kts 283°
2026-04-17 09:25 -20.43176 57.68089 191 ft 12 kts 211°
2026-04-17 09:25 -20.43255 57.68079 187 ft 9 kts 161°
2026-04-17 09:25 -20.43299 57.68067 195 ft 6 kts 242°
2026-04-17 09:25 -20.43315 57.68008 196 ft 8 kts 250°
2026-04-17 09:26 -20.43321 57.67990 189 ft 1 kts 249°
2026-04-17 09:26 -20.43322 57.67989 189 ft 0 kts 249°